Starlink 32506

operational
NORAD ID: 62167 Int'l Des: 2024-225 Owner: SPXS Country: US Constellation: starlink
LEOCIRCULAR

About Starlink 32506

Description loading...

Live Position

Loading 3D Globe...

Upcoming Passes

Altitude History

Altitude vs Time

uPlot chart will show altitude changes over time

Two-Line Element Set

1 62167U 24225E 26034.59620036 .00006626 00000-0 56238-3 0 9990
2 62167 69.9993 250.5934 0005227 289.2714 70.7879 14.98341411 64763
Epoch: Feb 3, 2026 • Age: 22 hours

Current Status

Altitude 589.8 km
Velocity 7.57 km/s
Sub-Earth Point -53.50°S, 139.92°E
Launch Date Nov 30, 2024
Age 1.1 years
Type internet

Technical Details

Classification Payload
Mass 730.00 kg
Dry Mass 700.00 kg
Total Mass 730.00 kg
Length 0.30 m
Diameter 4.10 m
Span 29.00 m
Shape Box + pan
Manufacturer SPXS
Bus Type Starlink V2M
Phase Status In Orbit
Owner/State SPXS/US

Large Constellations

Loading constellations...